ATLAS 5 CENTAUR DEB, 52045

Orbit data source: Space-Track

ATLAS 5 CENTAUR DEB, 52045 is space debris in HEO originally from a launch on Wed, 17 Oct 2018 UTC launched from the Air Force Eastern Test Range (AFETR). Debris objects in space refer to the collection of defunct objects orbiting the Earth. Examples of debris include non-operational satellites, rocket bodies, and fragments generated from explosions, collisions, or faulty payload assembly.

Loading next visibility...
Identifier
52045, 2018-079GP
Orbit
HEO
Country
Flag of USUS
Related business
Flag of USUnited Launch Alliance/Lockheed Martin (US)
Manufacturer
ULA Decatur
Mission
Spacecraft
Bus & Motor
Unknown
Mass
Unknown
Launch date (UTC)
2018-10-17 (7 years ago)
Launch vehicle
Unknown
Launch site
Air Force Eastern Test Range (AFETR)
Object type
Payload
Rocket body
Debris
Shape & HBR
Unknown shape, 1.1 m
Radar Cross Section
RCS unknown

Expand to show TLE details & history
Last TLE update: 2 months ago

TLE from 2 months ago
0 ATLAS 5 CENTAUR DEB
1 52045U 18079GP  25241.37655990 -.00000113  00000-0  00000-0 0  9995
2 52045  12.7916  80.8296 4586201 215.0637 103.7948  1.72896348 25633
Epoch: 2025-08-29T09:02Z
TLE epoch observation values (Epoch: 2025-08-29T09:02:14.775Z)
Latitude
-0.00001°
Longitude
-32.48701°
Altitude
30,678.481 km
Speed
2.814 km/s
True Right ascension
05h 23m 36s
True Declination
0° 00' 00"
Sunlit
Object was in daylight at epoch
Visualization orbit readout
Latitude
Unknown
Longitude
Unknown
Altitude
Unknown
Speed
Unknown
Apparent Right ascension
Unknown
Apparent Declination
Unknown
Sunlit
N/A
Visualization observer readout
Local Sidereal Time
11:40:52
Azimuth
Unknown
Elevation
Unknown
Doppler factor
Unknown
Orbital elements
Apogee altitude
36,396.184 km
Perigee altitude
9,497.935 km
Semi-major axis
29,325.196 km
Eccentricity
0.45862
Inclination
12.7916°
RAAN
80.8296°
Arg. of periapsis
215.0637°
True anomaly
144.98559°
Mean anomaly
103.7948°
Eccentric anomaly
125.25292°
Mean motion
0.4322 °/min
Orbital period
832.95 mins
BSTAR
0
Loading maneuver chart data...
Computing Atmospheric mass density...

Documentation

Showing up to 5 results
|